{"data":{"norad_id":56494,"epoch":"2026-09-20T13:34:18.647904Z","epoch_age_seconds":106351,"freshness":"FRESH","line1":"1 56494U 23064AY  26263.56549361  .00000425  00000+0  43443-4 0  9993","line2":"2 56494  70.0002 333.0816 0003192 268.5250  91.5544 14.98329623185410","mean_motion":14.98329623,"eccentricity":0.0003192,"inclination_deg":70.0002,"raan_deg":333.0816,"arg_perigee_deg":268.525,"mean_anomaly_deg":91.5544,"bstar":4.3443e-5,"rev_number":18541,"period_min":96.107023307514,"perigee_km":569.83855484314,"apogee_km":574.27555872899,"semimajor_km":6950.1940567861,"source":"CELESTRAK","updated_at":"2026-09-21T09:00:33.467574Z"}}